Language: 


Des rapports , des résumés tant et plus, au choix de chacun....


Données Historiques de Météogheer
Journalier Rapport pour Décembre 12, 2017 Unitée:  Métrique    Impériale   Les deux
Suivant Jour »
Journalier Hebdomadaire Mensuel Annuel Sur mesure
  Max: Min: Moyenne:
Température: 6.7 °C -0.2 °C 2.2 °C
Point de rosée: 6.0 °C -1.0 °C 2.1 °C
Humidité: 98% 86% 97%
Vent: 19.8km/h 0.0km/h 7km/h
Rafales: 20.9km/h - -
Vent- - WSW
Pression: 1013.1 hPa 0.0 hPa -
Pluie: 7.1 mm    
Historical Graphs
 
 
Données tabulaires pour Décembre 12, 2017
Heure Température Point de rosée Pression Vent Vent Rafales Humidité Pluie Taux (Horaire) Conditions
00:00 2.3 °C 3.0 °C 993.1 hPa West 7.2 km/h 9.0 km/h 98% 0.5 mm
00:05 2.2 °C 2.0 °C 993.1 hPa WSW 6.9 km/h 10.8 km/h 98% 0.5 mm
00:15 2.3 °C 3.0 °C 993.1 hPa West 5.8 km/h 12.2 km/h 98% 0.5 mm
00:30 2.1 °C 2.0 °C 993.1 hPa WSW 5.5 km/h 9.3 km/h 98% 0.3 mm
00:36 2.0 °C 2.0 °C 993.1 hPa West 9.7 km/h 13.7 km/h 98% 0.8 mm
00:51 1.9 °C 2.0 °C 993.1 hPa WSW 12.2 km/h 12.2 km/h 98% 0.3 mm
00:56 1.8 °C 2.0 °C 993.1 hPa WSW 6.9 km/h 12.2 km/h 98% 0.3 mm
01:01 1.8 °C 2.0 °C 993.1 hPa West 15.1 km/h 15.1 km/h 98% 0.3 mm
01:11 1.7 °C 2.0 °C 994.1 hPa WSW 6.1 km/h 15.1 km/h 98% 0.3 mm
01:16 1.8 °C 2.0 °C 994.1 hPa WSW 2.6 km/h 15.4 km/h 98% 0.3 mm
01:26 2.0 °C 2.0 °C 994.1 hPa West 5.5 km/h 12.6 km/h 98% 0.3 mm
01:31 2.1 °C 2.0 °C 994.1 hPa North 9.3 km/h 12.2 km/h 98% 0.3 mm
01:36 2.2 °C 2.0 °C 994.1 hPa WNW 10.1 km/h 11.9 km/h 98% 0.0 mm
01:41 2.3 °C 3.0 °C 994.1 hPa NW 16.3 km/h 16.3 km/h 98% 0.0 mm
01:46 2.4 °C 3.0 °C 994.1 hPa WSW 10.5 km/h 18.3 km/h 98% 0.0 mm
01:51 2.4 °C 3.0 °C 994.1 hPa WNW 11.9 km/h 18.3 km/h 98% 0.0 mm
02:01 2.3 °C 3.0 °C 995.1 hPa West 6.1 km/h 14.0 km/h 98% 0.3 mm
02:11 2.1 °C 2.0 °C 995.1 hPa WSW 13.7 km/h 19.1 km/h 98% 0.3 mm
02:22 1.9 °C 2.0 °C 995.1 hPa West 8.7 km/h 13.7 km/h 98% 0.3 mm
02:27 1.9 °C 2.0 °C 996.2 hPa NE 5.5 km/h 15.1 km/h 98% 0.3 mm
02:37 2.3 °C 3.0 °C 996.2 hPa Calm   16.3 km/h 98% 0.5 mm
02:42 2.3 °C 3.0 °C 996.8 hPa WNW 6.1 km/h 16.3 km/h 98% 0.8 mm
02:47 2.3 °C 3.0 °C 996.8 hPa West 4.7 km/h 9.3 km/h 98% 0.8 mm
02:57 2.1 °C 2.0 °C 996.8 hPa WNW 1.4 km/h 10.1 km/h 98% 0.8 mm
03:02 2.0 °C 2.0 °C 0.0 hPa Calm   8.5 km/h 98% 0.8 mm
03:07 1.9 °C 2.0 °C 996.8 hPa Calm   7.9 km/h 98% 1.3 mm
03:12 1.8 °C 2.0 °C 997.9 hPa Calm   6.4 km/h 98% 1.3 mm
03:17 1.7 °C 2.0 °C 997.9 hPa West 5.0 km/h 7.9 km/h 98% 1.5 mm
03:22 1.6 °C 2.0 °C 997.9 hPa West 9.0 km/h 9.7 km/h 98% 1.5 mm
03:27 1.6 °C 2.0 °C 997.9 hPa West 5.0 km/h 9.7 km/h 98% 1.8 mm
03:32 1.5 °C 2.0 °C 997.9 hPa WSW 5.8 km/h 9.7 km/h 98% 1.8 mm
03:35 1.4 °C 1.0 °C 997.9 hPa WSW 3.2 km/h 9.7 km/h 98% 1.5 mm
03:40 1.3 °C 1.0 °C 997.9 hPa WSW 8.7 km/h 9.0 km/h 98% 1.5 mm
03:45 1.3 °C 1.0 °C 997.9 hPa WSW 9.3 km/h 10.5 km/h 98% 1.5 mm
03:50 1.2 °C 1.0 °C 997.9 hPa WSW 10.8 km/h 10.8 km/h 98% 1.8 mm
03:55 1.1 °C 1.0 °C 997.9 hPa WSW 8.7 km/h 11.9 km/h 98% 1.5 mm
04:05 1.2 °C 1.0 °C 997.9 hPa West 12.6 km/h 13.7 km/h 98% 1.3 mm
04:10 1.2 °C 1.0 °C 997.9 hPa West 7.9 km/h 13.7 km/h 98% 1.3 mm
04:15 1.1 °C 1.0 °C 997.9 hPa WSW 9.0 km/h 14.0 km/h 98% 1.3 mm
04:20 1.1 °C 1.0 °C 997.9 hPa WSW 9.3 km/h 14.0 km/h 98% 1.3 mm
04:25 1.1 °C 1.0 °C 997.9 hPa WSW 8.7 km/h 13.7 km/h 98% 1.3 mm
04:30 1.0 °C 1.0 °C 997.9 hPa West 7.9 km/h 12.6 km/h 98% 1.3 mm
04:40 1.1 °C 1.0 °C 998.9 hPa WSW 5.8 km/h 9.7 km/h 98% 1.3 mm
04:50 1.1 °C 1.0 °C 998.9 hPa West 1.4 km/h 7.9 km/h 98% 0.8 mm
05:05 1.3 °C 1.0 °C 999.9 hPa Calm   4.3 km/h 98% 1.3 mm
05:10 1.3 °C 1.0 °C 1000.9 hPa Calm   4.3 km/h 98% 1.3 mm
05:26 1.4 °C 1.0 °C 1001.9 hPa West 9.7 km/h 12.2 km/h 98% 1.0 mm
05:31 1.6 °C 2.0 °C 1001.9 hPa West 10.1 km/h 12.2 km/h 98% 1.0 mm
05:36 1.6 °C 2.0 °C 1001.9 hPa West 9.0 km/h 12.2 km/h 98% 1.0 mm
05:41 1.6 °C 2.0 °C 1000.9 hPa WSW 6.1 km/h 13.7 km/h 98% 0.8 mm
05:46 1.6 °C 2.0 °C 1000.9 hPa West 6.9 km/h 13.7 km/h 98% 0.8 mm
05:51 1.7 °C 2.0 °C 1000.9 hPa WSW 11.9 km/h 14.0 km/h 98% 1.0 mm
05:52 1.7 °C 2.0 °C 1000.9 hPa West 11.6 km/h 14.0 km/h 98% 1.0 mm
05:57 1.7 °C 2.0 °C 1000.9 hPa WSW 15.4 km/h 17.2 km/h 98% 0.8 mm
06:02 1.7 °C 2.0 °C 1000.9 hPa WSW 9.7 km/h 20.1 km/h 98% 0.8 mm
06:07 1.7 °C 2.0 °C 1000.9 hPa West 10.8 km/h 20.1 km/h 98% 0.8 mm
06:17 1.7 °C 2.0 °C 1001.9 hPa WSW 19.8 km/h 19.8 km/h 98% 0.8 mm
06:22 1.7 °C 2.0 °C 1001.9 hPa West 6.9 km/h 19.8 km/h 98% 0.3 mm
06:37 1.7 °C 2.0 °C 1001.9 hPa WSW 9.3 km/h 20.9 km/h 98% 0.3 mm
06:42 1.7 °C 2.0 °C 1001.9 hPa West 8.7 km/h 20.9 km/h 98% 0.3 mm
06:47 1.8 °C 2.0 °C 1001.9 hPa West 16.6 km/h 17.2 km/h 98% 0.0 mm
06:52 1.8 °C 2.0 °C 1001.9 hPa West 12.6 km/h 16.6 km/h 98% 0.0 mm
06:57 1.8 °C 2.0 °C 1002.9 hPa WSW 16.9 km/h 16.9 km/h 98% 0.3 mm
07:02 1.8 °C 2.0 °C 1002.9 hPa West 10.1 km/h 16.9 km/h 98% 0.3 mm
07:13 1.8 °C 2.0 °C 1002.9 hPa West 9.3 km/h 15.8 km/h 98% 0.3 mm
07:18 1.9 °C 2.0 °C 1002.9 hPa West 5.0 km/h 14.0 km/h 98% 0.3 mm
07:23 1.8 °C 2.0 °C 1002.9 hPa West 11.6 km/h 13.7 km/h 98% 0.3 mm
07:33 1.8 °C 2.0 °C 1002.9 hPa SW 11.6 km/h 12.2 km/h 98% 0.3 mm
07:43 1.7 °C 2.0 °C 1002.9 hPa West 8.7 km/h 14.0 km/h 98% 0.3 mm
07:48 1.7 °C 2.0 °C 1002.9 hPa WSW 6.1 km/h 14.0 km/h 98% 0.3 mm
07:53 1.6 °C 2.0 °C 1002.9 hPa WSW 6.9 km/h 12.6 km/h 98% 0.3 mm
08:03 1.6 °C 2.0 °C 1003.9 hPa West 10.1 km/h 13.0 km/h 98% 0.0 mm
08:08 1.5 °C 2.0 °C 1003.9 hPa West 6.9 km/h 13.0 km/h 98% 0.3 mm
08:13 1.5 °C 2.0 °C 1005.0 hPa WSW 10.1 km/h 12.2 km/h 98% 0.3 mm
08:18 1.5 °C 2.0 °C 1005.0 hPa West 11.9 km/h 13.7 km/h 98% 0.3 mm
08:23 1.5 °C 2.0 °C 1005.0 hPa West 13.0 km/h 14.3 km/h 98% 0.3 mm
08:28 1.5 °C 2.0 °C 1003.9 hPa WSW 13.7 km/h 16.3 km/h 98% 0.3 mm
08:33 1.4 °C 1.0 °C 1003.9 hPa West 8.7 km/h 16.9 km/h 98% 0.3 mm
08:38 1.4 °C 1.0 °C 1003.9 hPa WSW 12.6 km/h 16.9 km/h 98% 0.3 mm
08:43 1.4 °C 1.0 °C 1005.0 hPa West 9.0 km/h 15.8 km/h 98% 0.3 mm
08:48 1.4 °C 1.0 °C 1005.0 hPa SW 7.9 km/h 16.6 km/h 98% 0.3 mm
09:03 1.5 °C 2.0 °C 1006.0 hPa Calm   14.0 km/h 98% 0.0 mm
09:08 1.5 °C 2.0 °C 1006.0 hPa WSW 10.5 km/h 10.5 km/h 98% 0.0 mm
09:13 1.5 °C 2.0 °C 1006.0 hPa WSW 8.7 km/h 10.5 km/h 98% 0.0 mm
09:28 1.6 °C 2.0 °C 1006.0 hPa West 5.8 km/h 14.0 km/h 98% 0.0 mm
09:39 1.7 °C 2.0 °C 1006.0 hPa WSW 9.0 km/h 11.9 km/h 98% 0.0 mm
09:44 1.8 °C 2.0 °C 1006.0 hPa WSW 10.1 km/h 11.9 km/h 98% 0.3 mm
09:54 1.8 °C 2.0 °C 1006.0 hPa WSW 9.7 km/h 12.2 km/h 98% 0.3 mm
10:04 1.9 °C 2.0 °C 1007.0 hPa West 5.8 km/h 9.7 km/h 98% 0.3 mm
10:09 1.9 °C 2.0 °C 1007.0 hPa Calm   10.1 km/h 98% 0.3 mm
10:14 1.9 °C 2.0 °C 1007.0 hPa West 6.4 km/h 10.5 km/h 98% 0.3 mm
10:19 1.9 °C 2.0 °C 1007.0 hPa WSW 6.4 km/h 10.5 km/h 98% 0.3 mm
10:34 2.0 °C 2.0 °C 1007.0 hPa WSW 15.1 km/h 15.1 km/h 98% 0.3 mm
10:39 2.0 °C 2.0 °C 1007.0 hPa WSW 10.1 km/h 15.1 km/h 98% 0.3 mm
10:44 2.1 °C 2.0 °C 1008.0 hPa WSW 9.7 km/h 13.7 km/h 98% 0.0 mm
10:49 2.1 °C 2.0 °C 1008.0 hPa WSW 12.2 km/h 16.6 km/h 98% 0.0 mm
10:50 2.1 °C 2.0 °C 1008.0 hPa WSW 12.6 km/h 16.6 km/h 98% 0.0 mm
11:00 2.2 °C 2.0 °C 1008.0 hPa WSW 12.2 km/h 14.8 km/h 98% 0.0 mm
11:05 2.2 °C 2.0 °C 1008.0 hPa SW 13.7 km/h 15.4 km/h 98% 0.0 mm
11:10 2.3 °C 3.0 °C 1009.0 hPa WSW 13.0 km/h 20.6 km/h 98% 0.0 mm
11:15 2.3 °C 3.0 °C 1009.0 hPa WSW 13.0 km/h 20.6 km/h 98% 0.0 mm
11:25 2.3 °C 3.0 °C 1009.0 hPa WSW 10.1 km/h 15.1 km/h 98% 0.3 mm
11:30 2.3 °C 3.0 °C 1009.0 hPa WSW 9.7 km/h 17.2 km/h 98% 0.3 mm
11:36 2.4 °C 3.0 °C 1009.0 hPa WSW 6.4 km/h 17.2 km/h 98% 0.3 mm
11:41 2.5 °C 3.0 °C 1009.0 hPa WSW 12.2 km/h 16.3 km/h 98% 0.3 mm
11:51 2.7 °C 3.0 °C 1009.0 hPa WSW 16.3 km/h 18.0 km/h 98% 0.3 mm
11:56 2.7 °C 3.0 °C 1009.0 hPa West 17.7 km/h 19.8 km/h 98% 0.3 mm
12:01 2.7 °C 3.0 °C 1009.0 hPa WSW 12.6 km/h 19.8 km/h 98% 0.3 mm
12:06 2.8 °C 3.0 °C 1009.0 hPa WSW 9.0 km/h 18.0 km/h 98% 0.3 mm
12:11 2.9 °C 3.0 °C 1010.0 hPa West 12.2 km/h 13.7 km/h 98% 0.3 mm
12:16 2.9 °C 3.0 °C 1010.0 hPa West 9.7 km/h 16.3 km/h 98% 0.0 mm
12:21 3.0 °C 3.0 °C 1010.0 hPa West 9.7 km/h 16.3 km/h 98% 0.3 mm
12:26 3.0 °C 3.0 °C 1009.0 hPa WSW 9.3 km/h 15.4 km/h 98% 0.3 mm
12:31 3.1 °C 3.0 °C 1009.0 hPa West 12.6 km/h 15.4 km/h 98% 0.3 mm
12:36 3.3 °C 3.0 °C 1009.0 hPa West 5.5 km/h 13.0 km/h 98% 0.3 mm
12:41 3.7 °C 4.0 °C 1009.0 hPa WSW 7.9 km/h 12.6 km/h 98% 0.3 mm
12:46 4.0 °C 4.0 °C 1009.0 hPa WSW 9.0 km/h 11.1 km/h 98% 0.3 mm
12:57 4.3 °C 4.0 °C 1009.0 hPa WSW 11.9 km/h 12.6 km/h 98% 0.3 mm
13:02 4.5 °C 5.0 °C 1009.0 hPa WSW 7.9 km/h 11.9 km/h 98% 0.3 mm
13:07 4.6 °C 5.0 °C 1009.0 hPa WSW 7.9 km/h 11.1 km/h 98% 0.3 mm
13:12 4.7 °C 5.0 °C 1009.0 hPa WSW 7.9 km/h 11.1 km/h 98% 0.3 mm
13:17 4.9 °C 5.0 °C 1009.0 hPa WSW 9.0 km/h 11.6 km/h 98% 0.0 mm
13:32 5.5 °C 6.0 °C 1009.0 hPa WSW 5.5 km/h 9.7 km/h 98% 0.3 mm
13:37 5.6 °C 6.0 °C 1009.0 hPa SW 9.3 km/h 9.7 km/h 98% 0.3 mm
13:42 5.6 °C 6.0 °C 1008.0 hPa WSW 6.9 km/h 10.5 km/h 98% 0.3 mm
13:47 5.8 °C 6.0 °C 1008.0 hPa Calm   10.5 km/h 98% 0.3 mm
13:52 5.9 °C 6.0 °C 1008.0 hPa WSW 9.7 km/h 9.7 km/h 97% 0.3 mm
13:58 6.0 °C 6.0 °C 1009.0 hPa WSW 5.0 km/h 9.7 km/h 96% 0.3 mm
14:03 6.0 °C 6.0 °C 1009.0 hPa West 4.7 km/h 9.3 km/h 96% 0.3 mm
14:08 6.0 °C 6.0 °C 1009.0 hPa West 8.7 km/h 9.3 km/h 95% 0.3 mm
14:13 6.0 °C 6.0 °C 1009.0 hPa West 9.3 km/h 10.1 km/h 95% 0.3 mm
14:18 6.0 °C 5.0 °C 1009.0 hPa West 4.0 km/h 10.1 km/h 94% 0.3 mm
14:23 6.0 °C 5.0 °C 1009.0 hPa WSW 7.6 km/h 10.1 km/h 94% 0.3 mm
14:28 6.0 °C 5.0 °C 1009.0 hPa Calm   10.1 km/h 94% 0.0 mm
14:38 6.1 °C 5.0 °C 1009.0 hPa WSW 8.7 km/h 10.1 km/h 93% 0.0 mm
14:43 6.1 °C 5.0 °C 1009.0 hPa WSW 5.8 km/h 10.1 km/h 92% 0.0 mm
14:48 6.2 °C 5.0 °C 1009.0 hPa WSW 9.0 km/h 10.5 km/h 92% 0.0 mm
14:53 6.2 °C 5.0 °C 1009.0 hPa Calm   10.5 km/h 91% 0.0 mm
14:58 6.3 °C 5.0 °C 1010.0 hPa WSW 6.1 km/h 9.3 km/h 90% 0.3 mm
15:08 6.5 °C 6.0 °C 1010.0 hPa Calm   6.9 km/h 91% 0.3 mm
15:13 6.7 °C 6.0 °C 1010.0 hPa Calm   6.1 km/h 91% 0.3 mm
15:18 6.7 °C 5.0 °C 1010.0 hPa WSW 4.3 km/h 5.0 km/h 90% 0.3 mm
15:28 6.1 °C 4.0 °C 1010.0 hPa West 9.3 km/h 11.9 km/h 87% 0.3 mm
15:33 5.8 °C 4.0 °C 1010.0 hPa WSW 9.0 km/h 11.9 km/h 87% 0.3 mm
15:38 5.7 °C 4.0 °C 1010.0 hPa WSW 9.7 km/h 11.1 km/h 87% 0.3 mm
15:43 5.5 °C 4.0 °C 1010.0 hPa WSW 9.7 km/h 9.7 km/h 86% 0.3 mm
15:48 5.3 °C 3.0 °C 1010.0 hPa Calm   9.7 km/h 86% 0.3 mm
15:53 5.1 °C 3.0 °C 1010.0 hPa WSW 6.1 km/h 9.0 km/h 86% 0.3 mm
15:58 4.8 °C 3.0 °C 1011.1 hPa WSW 6.9 km/h 7.6 km/h 87% 0.0 mm
16:04 4.4 °C 2.0 °C 1011.1 hPa Calm   7.6 km/h 86% 0.0 mm
16:14 3.7 °C 2.0 °C 1011.1 hPa WSW 5.5 km/h 7.2 km/h 87% 0.0 mm
16:19 3.4 °C 2.0 °C 1011.1 hPa Calm   6.9 km/h 88% 0.0 mm
16:34 2.8 °C 2.0 °C 1011.1 hPa Calm   9.7 km/h 89% 0.0 mm
16:39 2.6 °C 1.0 °C 1011.1 hPa WSW 8.7 km/h 10.5 km/h 90% 0.0 mm
16:44 2.5 °C 1.0 °C 1010.0 hPa Calm   10.5 km/h 90% 0.0 mm
16:54 2.2 °C 1.0 °C 1010.0 hPa Calm   6.9 km/h 92% 0.0 mm
16:59 2.2 °C 1.0 °C 1011.1 hPa Calm   5.8 km/h 92% 0.0 mm
17:04 2.1 °C 1.0 °C 1011.1 hPa Calm     93% 0.0 mm
17:09 2.1 °C 1.0 °C 1011.1 hPa Calm     93% 0.0 mm
17:14 2.1 °C 1.0 °C 1011.1 hPa Calm     93% 0.0 mm
17:19 1.7 °C 1.0 °C 1011.1 hPa Calm     94% 0.0 mm
17:24 1.4 °C 1.0 °C 1011.1 hPa Calm     93% 0.0 mm
17:39 0.9 °C 0.0 °C 1011.1 hPa Calm     93% 0.0 mm
17:41 0.8 °C 0.0 °C 1011.1 hPa Calm     94% 0.0 mm
17:46 0.7 °C 0.0 °C 1011.1 hPa Calm     94% 0.0 mm
17:51 0.6 °C 0.0 °C 1011.1 hPa Calm   2.1 km/h 95% 0.0 mm
17:56 0.5 °C 0.0 °C 1011.1 hPa Calm   2.1 km/h 95% 0.0 mm
18:01 0.4 °C 0.0 °C 1011.1 hPa Calm   2.6 km/h 95% 0.0 mm
18:06 0.4 °C 0.0 °C 1011.1 hPa Calm   2.6 km/h 96% 0.0 mm
18:12 0.3 °C 0.0 °C 1011.1 hPa Calm     96% 0.0 mm
18:17 0.2 °C 0.0 °C 1011.1 hPa Calm   4.0 km/h 96% 0.0 mm
18:22 0.1 °C 0.0 °C 1011.1 hPa Calm   4.0 km/h 96% 0.0 mm
18:27 0.1 °C 0.0 °C 1012.1 hPa Calm   4.0 km/h 97% 0.0 mm
18:32 0.0 °C -1.0 °C 1012.1 hPa Calm   4.0 km/h 97% 0.0 mm
18:37 0.0 °C -1.0 °C 1012.1 hPa Calm   4.0 km/h 97% 0.0 mm
18:42 -0.2 °C -1.0 °C 1012.1 hPa Calm   3.2 km/h 97% 0.0 mm
18:47 -0.2 °C -1.0 °C 1012.1 hPa Calm   3.2 km/h 97% 0.0 mm
18:52 0.0 °C -1.0 °C 1012.1 hPa Calm   3.2 km/h 98% 0.0 mm
18:57 0.0 °C -1.0 °C 1012.1 hPa Calm   1.4 km/h 98% 0.0 mm
19:02 0.0 °C -1.0 °C 1012.1 hPa Calm     98% 0.0 mm
19:07 0.0 °C -1.0 °C 1012.1 hPa Calm   5.8 km/h 98% 0.0 mm
19:17 0.0 °C -1.0 °C 1012.1 hPa Calm   5.8 km/h 98% 0.0 mm
19:27 0.0 °C -1.0 °C 1012.1 hPa Calm   5.5 km/h 98% 0.0 mm
19:32 0.0 °C -1.0 °C 1012.1 hPa SSW 5.8 km/h 7.6 km/h 98% 0.0 mm
19:37 0.0 °C -1.0 °C 1012.1 hPa SSW 4.0 km/h 7.6 km/h 98% 0.0 mm
19:42 0.0 °C -1.0 °C 1012.1 hPa Calm   6.9 km/h 98% 0.0 mm
19:47 0.0 °C -1.0 °C 1012.1 hPa Calm   7.6 km/h 98% 0.0 mm
19:52 0.0 °C -1.0 °C 1012.1 hPa Calm   9.0 km/h 98% 0.0 mm
19:57 1.1 °C 1.0 °C 1012.1 hPa South 7.6 km/h 10.1 km/h 98% 0.0 mm
20:02 1.1 °C 1.0 °C 1012.1 hPa SSW 5.0 km/h 10.1 km/h 98% 0.0 mm
20:08 1.1 °C 1.0 °C 1012.1 hPa SSW 5.5 km/h 10.5 km/h 98% 0.0 mm
20:23 1.1 °C 1.0 °C 1012.1 hPa SSW 9.0 km/h 10.5 km/h 98% 0.0 mm
20:33 1.1 °C 1.0 °C 1012.1 hPa SSW 4.7 km/h 11.9 km/h 98% 0.0 mm
20:38 1.7 °C 2.0 °C 1012.1 hPa SSW 6.1 km/h 10.5 km/h 98% 0.0 mm
20:43 1.7 °C 2.0 °C 1012.1 hPa SSW 4.7 km/h 9.3 km/h 98% 0.0 mm
20:48 1.6 °C 2.0 °C 1012.1 hPa South 4.7 km/h 7.9 km/h 98% 0.0 mm
21:03 1.7 °C 2.0 °C 1012.1 hPa SSW 9.3 km/h 10.5 km/h 98% 0.0 mm
21:08 1.6 °C 2.0 °C 1012.1 hPa SSW 6.4 km/h 10.5 km/h 98% 0.0 mm
21:13 1.7 °C 2.0 °C 1012.1 hPa South 9.0 km/h 12.6 km/h 98% 0.0 mm
21:18 1.7 °C 2.0 °C 1012.1 hPa South 8.7 km/h 12.6 km/h 98% 0.0 mm
21:23 1.7 °C 2.0 °C 1012.1 hPa South 8.7 km/h 14.0 km/h 98% 0.0 mm
21:33 1.7 °C 2.0 °C 1012.1 hPa SSW 6.1 km/h 13.7 km/h 98% 0.0 mm
21:38 1.7 °C 2.0 °C 1012.1 hPa SSW 4.7 km/h 10.5 km/h 98% 0.0 mm
21:49 1.7 °C 2.0 °C 1013.1 hPa South 5.5 km/h 11.6 km/h 98% 0.0 mm
21:54 1.7 °C 2.0 °C 1013.1 hPa South 11.1 km/h 14.8 km/h 98% 0.0 mm
22:04 1.7 °C 2.0 °C 1012.1 hPa SSW 6.9 km/h 12.2 km/h 98% 0.0 mm
22:09 1.7 °C 2.0 °C 1012.1 hPa SSW 14.0 km/h 14.0 km/h 98% 0.0 mm
22:19 1.7 °C 2.0 °C 1012.1 hPa South 8.7 km/h 15.8 km/h 98% 0.0 mm
22:24 1.7 °C 2.0 °C 1012.1 hPa SSW 7.9 km/h 15.8 km/h 98% 0.0 mm
22:29 1.7 °C 2.0 °C 1012.1 hPa SSW 6.4 km/h 13.7 km/h 98% 0.0 mm
22:34 1.6 °C 2.0 °C 1012.1 hPa SSW 6.1 km/h 11.9 km/h 98% 0.0 mm
22:39 1.6 °C 2.0 °C 1012.1 hPa South 8.7 km/h 12.2 km/h 98% 0.0 mm
22:44 1.6 °C 2.0 °C 1012.1 hPa South 11.9 km/h 16.3 km/h 98% 0.0 mm
22:49 1.6 °C 2.0 °C 1012.1 hPa SSW 8.7 km/h 16.3 km/h 98% 0.0 mm
22:54 1.6 °C 2.0 °C 1012.1 hPa SSW 9.3 km/h 15.8 km/h 98% 0.0 mm
22:59 1.6 °C 2.0 °C 1011.1 hPa South 13.0 km/h 16.3 km/h 98% 0.0 mm
23:09 1.6 °C 2.0 °C 1011.1 hPa South 11.6 km/h 16.3 km/h 98% 0.0 mm
23:14 1.6 °C 2.0 °C 1010.0 hPa SSE 16.6 km/h 16.6 km/h 98% 0.0 mm
23:19 1.7 °C 2.0 °C 1010.0 hPa SSW 15.1 km/h 20.1 km/h 98% 0.0 mm
23:24 1.8 °C 2.0 °C 1010.0 hPa SSW 10.5 km/h 20.1 km/h 98% 0.0 mm
23:34 1.9 °C 2.0 °C 1011.1 hPa South 14.0 km/h 17.7 km/h 98% 0.0 mm
23:39 1.9 °C 2.0 °C 1011.1 hPa SSW 11.6 km/h 17.7 km/h 98% 0.0 mm
23:44 1.9 °C 2.0 °C 1011.1 hPa SSW 13.0 km/h 16.9 km/h 98% 0.0 mm
23:55 2.0 °C 2.0 °C 1011.1 hPa South 9.3 km/h 16.3 km/h 98% 0.0 mm
Données Historique de Météo Turbie

Mise a jour : 24/05/2018 15:42:13
Généré par Cumulus 1.9.4 (1099)